EHI
0 0 0 0 0 0 0 0 0 0 0 0 0 0 0 0 0 0 0 0 0 0 0 0 0 0 0 0 0 0 0 0 0 0 0 0 0 0 0 0 0 0 0
0 0 0 0 0 0 0 0 0 0 0 0 0 0 0 0 0 0 0 0 0 0 0 0 0 0 0 0 0 0 0 0 0 0 0 0 0 0 0 0 0 0 0
0 0 0 0 0 0 0 0 0 0 0 0 0 0 0 0 0 0 0 0 0 0 0 0 0 0 0 0 0 0 0 0 0 0 0 0 0 0 0 0 0 0 0
0 0 0 0 0 0 0 0 0 0 0 0 0 0 0 0 0 0 0 0 0 0 0 0 0 0 0 0 0 0 0 0 0 0 0 0 0 0 0 0 0 0 0
0 0 0 0 0 0 0 0 0 0 0 0 0 0 0 0 0 0 0 0 0 0 0 0 0 0 0 0 0 0 1 1 1 0 0 0 0 0 0 0 0 0 0
0 0 0 0 0 0 0 0 0 0 0 0 0 0 0 0 0 0 0 0 0 0 0 0 0 0 0 0 0 0 1 1 1 1 0 0 0 0 0 0 0 0 0
0 0 0 0 0 0 0 0 0 0 0 0 0 0 0 0 0 0 0 0 0 0 0 0 0 0 0 0 0 0 0 1 2 2 1 0 0 0 0 0 0 0 0
0 0 0 0 0 0 0 0 0 0 0 0 0 0 0 0 0 0 0 0 0 0 0 0 0 0 0 0 0 0 0 1 2 2 1 0 0 0 0 0 0 0 0
0 0 0 0 0 0 0 0 0 0 0 0 0 0 0 0 0 0 0 0 0 0 0 0 0 0 0 0 0 0 0 0 1 2 1 0 0 0 0 0 0 0 0
0 0 0 0 0 0 0 0 0 0 0 0 0 0 0 0 0 0 0 0 0 0 0 0 0 0 0 0 0 0 0 0 0 1 1 0 0 0 0 0 0 0 0
0 0 0 0 0 0 0 0 0 0 0 0 0 0 0 0 0 0 0 0 0 0 0 0 0 0 0 0 0 0 0 0 0 0 0 0 0 0 0 0 0 0 0
0 0 0 0 0 0 0 0 0 0 0 0 0 0 0 0 0 0 0 0 0 0 0 0 0 0 0 0 0 0 0 0 0 0 0 0 0 0 0 0 0 0 0
0 0 0 0 0 0 0 0 0 0 0 0 0 0 0 0 0 0 0 0 0 0 0 0 0 0 0 0 0 0 0 0 0 0 0 0 0 0 0 0 0 0 0
0 0 0 0 0 0 0 0 0 0 0 0 0 0 0 0 0 0 0 0 0 0 0 0 0 0 0 0 0 0 0 0 0 0 0 0 0 0 0 0 0 0 0
0 0 0 0 0 0 0 0 0 0 0 0 0 0 0 0 0 0 0 0 0 0 0 0 0 0 0 0 0 0 0 0 0 0 0 0 0 0 0 0 0 0 0
0 0 0 0 0 0 0 0 0 0 0 0 0 0 0 0 0 0 0 0 0 0 0 0 0 0 0 0 0 0 0 0 0 0 0 0 0 0 0 0 0 0 0
0 0 0 0 0 0 0 0 0 0 0 0 0 0 0 0 0 0 0 0 0 0 0 0 0 0 0 0 0 0 0 0 0 0 0 0 0 0 0 0 0 0 0
0 0 0 0 0 0 0 0 0 0 0 0 0 0 0 0 0 0 0 0 0 0 0 0 0 0 0 0 0 0 0 0 0 0 0 0 0 0 0 0 0 0 0
0 0 0 0 0 0 0 0 0 0 0 0 0 0 0 0 0 0 0 0 0 0 0 0 0 0 0 0 0 0 0 0 0 0 0 0 0 0 0 0 0 0 0
0 0 0 0 0 0 0 0 0 0 0 0 0 0 0 0 0 0 0 0 0 0 0 0 0 0 0 0 0 0 0 0 0 0 0 0 0 0 0 0 0 0 0
0 0 0 0 0 0 0 0 0 0 0 0 0 0 0 0 0 0 0 0 0 0 0 0 0 0 0 0 0 0 0 0 0 0 0 0 0 0 0 0 0 0 0
0 0 0 0 0 0 0 0 0 0 0 0 0 0 0 0 0 0 0 0 0 0 0 0 0 0 0 0 0 0 0 0 0 0 0 0 0 0 0 0 0 0 0
0 0 0 0 0 0 0 0 0 0 0 0 0 0 0 0 0 0 0 0 0 0 0 0 0 0 0 0 0 0 0 0 0 0 0 0 0 0 0 0 0 0 0
0 0 0 0 0 0 0 0 0 0 0 0 0 0 0 0 0 0 0 0 0 0 0 0 0 0 0 0 0 0 0 0 0 0 0 0 0 0 0 0 0 0 0
0 0 0 0 0 0 0 0 0 0 0 0 0 0 0 0 0 0 0 0 0 0 0 0 0 0 0 0 0 0 0 0 0 0 0 0 0 0 0 0 0 0 0
0 0 0 0 0 0 0 0 0 0 0 0 0 0 0 0 0 0 0 0 0 0 0 0 0 0 0 0 0 0 0 0 0 0 0 0 0 0 0 0 0 0 0
Wind_Speed
4 4 3 3 3 3 3 3 4 5 5 5 5 6 6 6 5 5 5 11 11 11 10 9 9 8 8 9 9 9 8 9 9 9 9 8 8 8 8 8 8 7 7
4 4 4 3 3 3 3 3 4 4 4 4 5 5 5 5 5 5 4 7 11 11 10 9 9 9 8 8 8 8 8 7 7 7 7 7 7 7 7 7 7 7 7
4 4 4 3 3 3 4 4 5 4 4 4 5 5 4 5 4 5 4 4 5 9 11 10 10 9 8 8 7 7 7 7 6 6 6 6 6 6 7 7 7 7 7
5 4 4 3 4 3 3 4 4 4 3 3 3 3 3 3 4 4 4 4 4 4 8 11 11 10 8 8 8 7 7 7 6 5 5 6 6 6 6 6 7 7 7
5 4 4 4 4 4 3 3 3 3 4 3 3 3 3 3 3 3 4 4 4 4 4 7 10 10 9 8 8 7 7 7 6 5 5 5 5 5 5 5 6 6 7
6 5 4 5 5 4 4 4 4 3 3 3 3 3 2 2 2 2 3 3 3 4 4 4 4 6 9 9 8 7 6 6 6 6 5 5 5 5 5 5 5 5 6
6 5 4 5 4 4 5 5 5 5 3 3 2 2 2 1 1 1 1 1 2 3 3 4 3 3 3 7 8 7 6 6 5 5 5 5 4 4 4 4 5 5 5
6 5 6 5 5 4 6 6 5 4 3 3 2 2 1 2 1 0 0 1 1 1 2 3 3 3 3 3 5 7 7 6 5 5 4 5 4 4 4 4 4 4 5
6 6 6 5 5 5 5 6 6 5 4 2 2 2 2 2 1 1 1 0 0 0 1 1 2 2 2 2 3 6 7 6 6 5 4 4 4 5 4 4 4 4 4
5 6 6 6 6 5 6 6 6 5 5 4 2 1 1 0 2 2 2 1 1 1 1 1 1 1 1 1 3 5 7 6 6 5 5 4 4 5 5 5 5 5 5
5 5 6 6 6 5 6 6 6 5 4 4 3 2 2 2 2 2 2 2 2 1 1 1 1 1 1 1 1 4 6 6 6 6 6 5 5 5 6 6 6 5 5
4 5 6 6 6 5 6 6 5 6 5 5 4 3 3 3 3 3 2 2 2 2 2 1 1 1 1 1 2 4 5 6 6 6 7 6 6 6 6 6 7 7 6
4 6 6 6 6 6 6 6 5 6 6 6 5 4 3 3 2 2 2 2 2 2 3 2 2 1 1 1 1 3 3 4 5 6 6 7 7 8 8 8 7 7 7
5 6 6 6 6 6 6 6 5 5 5 6 5 5 3 3 3 3 2 2 2 2 3 3 2 2 1 1 2 3 2 3 5 5 6 6 7 7 8 8 8 8 8
5 7 7 6 6 6 6 6 5 6 5 5 5 5 4 3 3 3 3 3 3 3 3 3 2 2 2 2 2 2 2 2 4 5 5 6 6 7 8 8 8 8 8
5 6 6 6 6 6 6 6 5 5 6 5 4 5 4 3 3 3 3 3 3 3 3 1 2 2 2 2 3 3 2 3 4 5 5 5 5 6 7 8 8 8 7
5 6 6 6 6 6 6 6 6 6 6 6 5 6 5 5 4 3 3 3 3 3 3 2 2 2 3 3 2 3 2 3 2 3 5 5 5 5 6 7 8 8 8
5 5 5 5 5 6 6 6 6 6 7 7 6 6 6 5 5 4 3 4 3 3 3 3 2 2 3 3 3 3 3 3 3 3 5 6 5 5 6 7 7 8 8
5 5 6 6 6 6 6 7 6 6 6 7 7 7 6 6 6 4 4 4 3 3 3 3 3 2 2 2 3 3 3 3 3 3 5 5 6 6 7 7 8 8 8
5 6 6 6 5 5 6 6 6 6 6 6 6 6 6 7 6 6 5 5 4 4 4 3 3 3 2 2 3 3 3 3 3 3 4 4 5 7 8 8 7 8 8
5 5 5 5 5 5 5 5 5 5 6 6 5 5 6 6 6 5 4 5 5 4 4 3 3 3 3 2 3 2 3 3 4 4 3 3 4 4 5 6 6 7 9
4 4 5 5 5 4 6 7 5 5 5 6 5 5 5 6 6 7 7 6 6 6 5 4 4 4 5 4 3 3 3 3 4 2 4 5 4 5 4 4 6 8 9
4 4 5 5 5 5 7 7 6 4 5 5 5 5 4 4 6 5 6 7 7 7 7 6 6 6 5 5 4 4 4 5 5 3 4 5 4 5 4 4 8 9 9
4 4 4 4 4 5 7 7 6 4 4 4 5 6 5 5 5 5 5 5 5 6 6 5 5 5 4 4 5 5 5 5 5 4 4 5 4 5 4 5 6 8 9
3 3 3 3 4 4 6 6 5 3 3 4 4 4 5 6 7 8 6 5 5 5 5 5 5 5 5 5 5 3 4 4 4 4 3 4 4 5 5 5 4 6 8
2 2 2 2 3 3 5 6 5 3 3 3 3 3 5 6 8 8 6 6 6 5 4 3 4 4 4 4 5 5 4 4 4 3 3 3 4 3 4 3 3 4 5
Wind_Direction
131 124 116 109 105 104 106 100 93 85 77 70 66 65 64 60 56 55 50 43 45 48 53 57 61 67 70 70 66 65 68 69 65 64 64 59 55 53 52 50 47 48 49
137 132 123 116 114 114 109 109 103 92 79 74 71 66 63 60 57 54 51 45 43 43 48 52 54 59 64 68 65 60 62 63 62 59 58 57 52 50 49 46 42 41 40
147 141 133 127 121 120 119 114 107 99 91 84 75 65 60 56 56 49 44 39 42 41 40 43 47 49 54 60 62 59 58 58 56 55 52 51 48 47 46 44 39 35 33
153 145 141 134 130 130 131 127 124 113 102 91 78 64 59 55 51 45 44 44 39 34 39 38 39 39 45 49 52 54 55 53 52 51 53 50 46 46 44 40 37 32 30
160 152 145 139 141 137 135 131 129 125 117 100 84 66 54 49 47 49 51 47 46 39 37 39 37 34 35 39 43 45 45 43 41 41 43 41 36 38 37 35 32 27 25
164 154 147 149 149 145 142 140 134 125 120 113 97 74 55 50 41 44 43 47 45 39 35 33 32 31 32 30 32 33 35 34 32 33 32 35 29 28 29 28 25 19 16
166 159 153 155 160 158 154 151 140 133 128 132 121 102 73 57 57 45 30 39 50 40 39 33 28 23 26 26 21 20 24 24 24 24 24 27 23 20 22 20 17 17 15
170 166 161 166 168 159 156 157 153 150 150 174 170 159 169 181 142 46 16 14 36 37 38 31 27 22 19 19 21 13 11 12 12 12 12 15 12 2 4 3 7 7 3
176 172 171 171 174 173 171 171 173 170 166 179 212 219 207 201 169 171 207 240 315 336 13 19 16 15 19 21 15 18 7 4 3 360 355 359 3 1 350 349 345 349 352
175 177 176 177 178 182 179 181 184 183 175 178 187 260 289 219 210 188 189 203 242 280 316 346 351 360 10 22 30 17 7 0 356 354 349 345 348 348 348 340 331 331 333
177 182 180 182 184 186 185 187 187 188 193 194 191 189 189 208 227 226 218 206 217 228 261 293 295 324 344 1 19 21 6 2 358 351 339 336 335 333 333 337 329 324 321
181 187 185 188 189 189 189 191 191 195 201 204 202 202 203 207 210 214 226 229 228 217 232 252 267 279 312 336 20 12 358 351 348 349 344 335 329 328 328 328 331 332 324
189 191 189 193 191 192 191 190 192 198 202 204 205 208 215 225 218 213 203 224 238 232 230 231 239 253 269 286 355 344 339 337 338 336 333 336 336 335 330 324 326 328 330
193 191 192 196 195 191 190 192 193 195 200 204 208 207 208 212 214 216 211 206 230 229 229 228 214 234 254 275 333 306 307 315 323 323 324 329 331 330 328 325 322 323 325
188 189 191 191 194 190 189 189 193 195 198 203 205 205 207 208 214 219 218 219 227 232 231 213 212 216 248 272 294 289 300 319 312 312 311 312 317 319 319 320 319 317 316
184 185 187 188 192 190 190 192 192 194 197 201 201 203 206 207 210 213 214 227 241 242 240 229 233 219 249 268 282 282 293 302 295 302 306 303 306 314 317 317 316 315 318
183 184 186 187 192 191 191 194 196 193 198 199 200 204 207 207 208 210 210 220 229 236 230 243 236 227 246 258 263 269 274 276 285 300 302 301 301 306 311 313 311 313 314
185 184 184 188 192 193 192 193 195 196 200 201 201 203 206 205 208 209 208 216 225 237 227 229 228 225 241 251 262 267 275 276 280 288 293 294 291 296 303 308 305 307 309
184 184 187 190 195 196 197 198 195 199 203 203 201 203 205 205 209 209 208 215 219 227 225 221 227 228 237 245 259 265 270 271 278 279 276 276 280 290 299 301 298 301 305
188 189 192 195 196 197 200 199 197 200 200 200 202 203 206 210 213 210 211 216 215 220 211 213 221 223 231 244 252 256 263 268 278 280 268 273 278 283 286 291 294 298 300
191 190 191 195 197 198 198 199 200 201 195 194 199 207 211 216 220 217 214 213 211 218 212 214 218 225 227 229 240 251 261 273 278 271 269 270 272 274 276 277 282 289 296
188 191 193 194 199 204 201 201 202 201 193 192 198 205 207 209 211 219 224 225 224 223 218 219 225 228 236 239 239 245 257 267 272 259 276 276 271 271 274 275 287 290 292
189 196 199 196 203 203 200 198 200 202 198 197 199 202 207 208 210 213 219 227 232 241 237 230 231 236 241 238 235 241 249 261 270 275 273 272 269 270 275 274 284 286 286
190 196 201 201 202 203 199 197 194 201 203 202 206 208 208 208 207 208 212 219 229 238 238 237 238 243 246 243 237 245 254 263 277 268 260 266 269 274 281 275 275 281 286
193 197 197 200 202 201 196 194 182 192 203 207 212 213 211 213 208 209 215 221 231 238 239 240 250 255 258 256 252 239 234 239 259 262 253 258 273 285 282 271 268 280 286
191 186 189 202 205 204 197 192 185 191 203 211 216 222 225 221 211 212 218 220 223 230 230 226 232 236 240 238 239 237 236 241 255 255 232 251 272 293 285 267 271 279 280